Regional Weather Roundup
Issued by NWS

Home | Current Version | Previous Version | Text Only | Print | Product List | Glossary On
Versions: 1 2 3 4 5 6 7 8 9 10 11 12 13 14 15 16 17 18 19 20 21 22 23 24 25 26 27 28 29 30 31 32 33 34 35 36 37 38 39 40 41 42 43 44 45 46 47 48 49 50
000
ASUS43 KMKX 310521
RWRWI

WISCONSIN REGIONAL WEATHER ROUNDUP
NATIONAL WEATHER SERVICE MILWAUKEE/SULLIVAN WI
1200 AM CDT SUN JUL 31 2016

NOTE: "FAIR" INDICATES FEW OR NO CLOUDS BELOW 12,000 FEET WITH NO
SIGNIFICANT WEATHER AND/OR OBSTRUCTIONS TO VISIBILITY.

WIZ001-002-006>008-014>016-023>028-310600-
NORTHWEST WISCONSIN

CITY           SKY/WX    TMP DP  RH WIND       PRES   REMARKS
SUPERIOR ARPT  CLOUDY    64  64  98 NE6       30.03S
ASHLAND        PTCLDY    57  56  96 CALM      30.04S FOG
HAYWARD        PTCLDY    63  60  90 CALM      30.04S
SIREN          CLEAR     64  63  94 CALM      30.02S
CUMBERLAND     CLEAR     63  59  88 SE5       30.03S
RICE LAKE      CLEAR     65  62  88 SE6       30.05R
CHETEK         CLEAR     66  62  88 SE6       30.04R
LADYSMITH      CLOUDY    66  61  85 E3        30.07S
EAU CLAIRE     PTCLDY    68  63  84 SE6       30.02S
MENOMONIE      CLEAR     66  61  84 CALM      30.03R
NEW RICHMOND   CLEAR     65  63  92 CALM      30.02S
OSCEOLA        MOCLDY    65  65 100 CALM      30.04R
$$

WIZ003>005-009-010-017-018-310600-
NORTH CENTRAL WISCONSIN

CITY           SKY/WX    TMP DP  RH WIND       PRES   REMARKS
MANITOWISH WTR CLEAR     58  58 100 CALM      30.09R
ARBOR VITAE    CLEAR     60  55  83 CALM      30.09S
WOODRUFF       CLEAR     60  55  83 CALM      30.09S
RHINELANDER    CLEAR     54  51  90 CALM      30.10S FOG
EAGLE RIVER    CLEAR     55  53  95 SE3       30.09F
LAND O LAKES   CLEAR     54  53  95 CALM      30.11S
PHILLIPS       CLEAR     64  58  82 SE3       30.08R
TOMAHAWK       CLEAR     55  53  94 CALM      30.09S
MEDFORD        CLEAR     60  55  82 E3        30.08R
MERRILL        CLEAR     56  55  98 CALM      30.10R
$$

WIZ029-030-035-036-043>047-310600-
CENTRAL WISCONSIN

CITY           SKY/WX    TMP DP  RH WIND       PRES   REMARKS
WAUSAU         CLEAR     60  54  80 CALM      30.07R
MOSINEE        CLEAR     61  52  72 CALM      30.09R
MARSHFIELD     MOCLDY    63  55  75 CALM      30.07R
STEVENS POINT  CLEAR     58  55  87 CALM      30.07S
WAUPACA        CLEAR     60  59  98 CALM      30.06S
WAUTOMA        CLEAR     59  57  93 CALM      30.06S
WISC RAPIDS    CLEAR     60  54  80 CALM      30.07S
CAMP DOUGLAS   CLEAR     59  58  97 S1        30.05S
$$

WIZ011>013-019>022-031-037>040-048>050-310600-
NORTHEAST WISCONSIN

CITY           SKY/WX    TMP DP  RH WIND       PRES   REMARKS
ANTIGO         CLEAR     53  52  96 CALM      30.09S
SHAWANO        CLEAR     59  56  89 CALM      30.07S
OCONTO         CLEAR    N/A N/A N/A CALM      30.05S
STURGEON BAY   CLEAR     67  59  75 NE5       30.05F
GREEN BAY      PTCLDY    59  59 100 CALM      30.05F
MANITOWOC      CLEAR     62  58  86 CALM      30.04F
APPLETON       CLEAR     61  52  72 N6        30.04S
CLINTONVILLE   CLEAR     57  54  88 CALM      30.06S
OSHKOSH        CLEAR     63  55  75 CALM      30.04F
$$

WIZ032>034-041-042-053>061-310600-
SOUTHWEST WISCONSIN

CITY           SKY/WX    TMP DP  RH WIND       PRES   REMARKS
LA CROSSE      CLEAR     68  65  90 SE6       30.02R
SPARTA         MOCLDY    63  61  95 CALM      30.05S
VIROQUA        CLEAR     64  61  92 E5        30.05S
BOSCOBEL       CLEAR     63  62  97 CALM      30.03R FOG
PRAIRIE DU CHI   N/A     66  64  92 CALM      30.02R
PLATTEVILLE    CLEAR     66  63  90 E8        30.03F
$$

WIZ056-057-062-063-064-067-068-310600-
SOUTH CENTRAL WISCONSIN

CITY           SKY/WX    TMP DP  RH WIND       PRES   REMARKS
REEDSBURG      CLEAR     61  60  97 CALM      30.05R
BARABOO/DELLS  CLEAR     60  56  89 E5        30.05S
LONE ROCK      CLEAR     62  59  90 CALM      30.04S
MINERAL POINT  CLEAR     66  59  77 E6        30.05R
MADISON        CLEAR     62  56  80 NE3       30.04S
MIDDLETON      CLEAR     60  59  97 CALM      30.05S
WATERTOWN      CLEAR     60  60  98 CALM      30.03F
MONROE         CLEAR     64  59  82 CALM      30.05S
JANESVILLE     CLEAR     63  61  94 CALM      30.03S
$$

WIZ051-052-058>065-066-070>072-310600-
SOUTHEAST WISCONSIN

CITY           SKY/WX    TMP DP  RH WIND       PRES   REMARKS
MILWAUKEE      PTCLDY    68  64  87 N7        30.02S
WAUKESHA       CLEAR     61  57  88 CALM      30.04F
MILWAUKEE/TIMM CLEAR     64  59  82 N3        30.03F
RACINE         PTCLDY    66  63  90 N5        30.03F
BURLINGTON     CLEAR     58  57  94 CALM      30.02F
KENOSHA        PTCLDY    65  62  90 N5        30.02F
FOND DU LAC    CLEAR     61  57  87 CALM      30.04F
SHEBOYGAN      CLEAR     62  57  83 CALM      30.03F
WEST BEND      CLEAR     59  55  88 CALM      30.04S
JUNEAU         CLEAR     59  56  91 CALM      30.05F
$$

LSZ147-162-310600-
LAKE SUPERIOR

STATION/POSITION TIME  TEMP    WIND        PRES    WAVE
                       AIR SEA DIR/SP/G            HT/PER
                 (UTC) (F)     (DEG/KT/KT) (MB)    (FT/S)
W MID LAKE BUOY  0450   65 63  120/  8/ 10 1016.6R   0
DEVILS ISLAND    0500   67      50/  7/  8 1016.8F
PORT WING        0440   61      CALM  /  1 1016.9R
SAXON HARBOR     0400   63     170/  2/  5 1016.6S
$$

LMZ867-665-643>646-310600-
LAKE MICHIGAN

STATION/POSITION TIME  TEMP    WIND        PRES    WAVE
                       AIR SEA DIR/SP/G            HT/PER
                 (UTC) (F)     (DEG/KT/KT) (MB)    (FT/S)
CHAMBERS ISLAND  0400   71      30/  8/ 10 1017.6S
S GREEN BAY BUOY 0500   71 71   30/  8/ 10 1016.9F
N MID LAKE BUOY  0450   71 70  100/ 12/ 14 1016.7S   2/ 4
NORTHPORT PIER   0400   70      40/  5/  8 1017.6S
SISTER BAY       0406   66        CALM       N/A
ALGOMA LAKESHORE 0413          310/  6/  8   N/A
KEWAUNEE LAKESHO 0400   64     290/  2/  4 1016.7S
SHEBOYGAN LAKESH 0500   67     340/  8/  9 1017.0F
PORT WASHINGTON  0440   67     320/  5/  7 1017.3F
ATWATER BUOY     0500   66 65  360/  8/ 10 1018.1F
MILWAUKEE LAKESH 0510   68     350/  7/  9   N/A
S MID LAKE BUOY  0450   71 73   80/ 10/ 10 1015.6R   2/ 5
KENOSHA   LAKESH 0500   72      80/  9/ 10 1015.9F
$$

TC  - TEMPERATURE IN CELSIUS
VSB - VISIBILITY IN STATUTE MILES
WCI - WIND CHILL INDEX
HX  - HEAT INDEX





USA.gov is the U.S. government's official web portal to all federal, state and local government web resources and services.